User: anonymous
Location: Owatonna
(44.0840°N, 93.2260°W)
Time: 11:15:15
(UTC-05:00)
Language:

Tiangong 1 - Orbit

View from above orbital plane
View from above orbital plane
View from above satellite
View from above satellite

Ground track
Ground track

The orbit data is extracted from the following two-line orbital elements,

1 37820U 11053A   14265.49892571  .00040608  00000-0  36396-3 0  4143
2 37820 042.7691 085.7522 0007423 286.5397 119.2593 15.67558468171325
Epoch (UTC): 22 September 2014 11:58:27
Eccentricity: 0.0007423
inclination: 42.7691°
perigee height: 361 km
apogee height: 371 km
right ascension of ascending node: 85.7522°
argument of perigee: 286.5397°
revolutions per day: 15.67558468
mean anomaly at epoch: 119.2593°
orbit number at epoch: 17132

The dashed part of the orbit path shows where the satellite is in the earth's shadow,  

DLR